OneWeb SL0253

operational
NORAD ID: 48971 Int'l Des: 2021-060 Owner: ONEWEBN Country: UK Constellation: oneweb
LEOCIRCULARPOLARONEWEB_TYPE

About OneWeb SL0253

Description loading...

Live Position

Loading 3D Globe...

Upcoming Passes

Altitude History

Altitude vs Time

uPlot chart will show altitude changes over time

Two-Line Element Set

1 48971U 21060E 25258.57165775 -.00000081 00000-0 -24523-3 0 9993
2 48971 87.8979 283.5085 0001663 92.6837 267.4485 13.16594958203452
Epoch: Sep 15, 2025 • Age: 17 hours

Current Status

Altitude 1201.1 km
Velocity 7.26 km/s
Sub-Earth Point 31.71°N, 3.31°E
Launch Date Jul 1, 2021
Age 4.2 years
Type internet

Technical Details

Classification Payload
Mass 148.00 kg
Dry Mass 140.00 kg
Total Mass 148.00 kg
Length 1.30 m
Diameter 1.00 m
Span 5.00 m
Shape Trapezoid+2 pan
Manufacturer ONEWUS
Bus Type ARROW
Phase Status In Orbit
Owner/State ONEWEBN/UK

Large Constellations

Loading constellations...